Find Starlink 2682

NORAD ID: 48440 Int'l Des: 2021-040 Owner: SPXS Country: US Constellation: starlink operational
LEOCIRCULAR

Live Position

Loading 3D Globe...

About Starlink 2682

Description loading...

Upcoming Passes

Passes for default location (London). Set your location on the main map for personalized predictions.

Altitude History

Loading altitude history...

Two-Line Element Set

1 48440U 21040N 26126.66668981 -.00003728 00000-0 -10843-3 0 9995
2 48440 53.1583 268.5523 0001554 74.4826 110.9317 15.31698360 5889
Epoch: May 6, 2026 • Age: 6 hours

Current Status

Altitude 475.7 km
Velocity 7.63 km/s
Sub-Earth Point 50.99°N, 142.73°E
Launch Date May 9, 2021
Age 4.9 years
Type internet

Technical Details

Classification Payload
Mass 260.00 kg
Dry Mass 248.00 kg
Total Mass 260.00 kg
Length 0.20 m
Diameter 2.80 m
Span 9.00 m
Shape Box + pan
Manufacturer SPXS
Bus Type Starlink
Phase Status In Orbit
Owner/State SPXS/US

Most Searched